Location: Cahas Mountain Overlook
(37.0833°N, 80.1000°W)
Time: 20:13:07
(UTC-04:00)

Tiros 1 - Pass Details

Date: 11 February 2026
Orbit: 618 x 649 km, 48.4° (Epoch: 13 March)

Event Time Altitude Azimuth Distance (km) Brightness Sun altitude
Rises 12:25:49 0° 266° (W) 2,889 10.5 39.0°
Reaches altitude 10° 12:28:22 10° 277° (W) 1,980 9.7 39.0°
Maximum altitude 12:32:23 30° 340° (NNW) 1,111 8.2 39.1°
Drops below altitude 10° 12:36:23 10° 42° (NE) 1,978 9.4 39.1°
Sets 12:38:56 0° 53° (NE) 2,885 10.2 39.1°
